Wind_Speed
16 16 15 2 14 13 9 14 19 21 15 24 23 26 30 34 33 37 37 40 33 33 33 34 29 24 20 17 20 19 16 14 15 17 17 17 17 16 14 14 15 16 20
11 12 14 16 11 16 17 17 14 19 16 24 19 23 23 19 27 33 27 26 26 35 38 31 28 22 23 23 22 18 17 18 16 17 19 21 20 20 20 19 20 21 22
9 7 9 12 13 15 15 15 15 17 16 17 20 21 24 26 26 29 29 27 29 38 38 34 26 25 24 25 22 21 20 21 21 21 23 24 23 22 24 24 25 26 26
5 6 5 7 10 10 12 13 15 18 19 24 25 25 27 25 25 29 29 28 31 32 33 31 27 25 27 28 26 23 20 21 24 25 26 28 27 28 30 28 29 31 31
5 3 3 1 4 8 10 11 13 15 19 21 20 20 20 21 24 25 25 25 27 31 29 26 28 31 32 28 25 22 22 19 22 27 29 32 33 33 33 31 31 35 35
10 8 8 5 4 3 6 8 9 11 13 16 18 20 20 20 21 22 22 25 27 26 26 26 24 27 28 27 26 22 26 26 24 29 32 37 36 36 35 36 33 37 37
11 11 7 5 7 5 4 5 7 6 7 9 11 14 14 15 14 15 17 20 22 21 20 24 26 27 25 25 26 25 25 27 28 34 36 28 39 40 42 35 38 37 38
16 14 10 7 6 9 11 8 6 5 7 8 9 11 13 13 15 16 17 19 20 21 23 26 27 27 25 27 26 26 26 30 35 33 37 36 35 41 39 37 39 39 40
17 16 17 13 13 12 10 11 13 13 12 12 14 14 14 14 14 15 18 20 22 24 27 29 31 29 29 27 26 26 25 25 25 31 36 35 32 35 30 31 32 33 41
13 15 16 16 16 17 17 15 15 21 19 18 17 17 17 17 17 20 21 22 24 27 29 31 33 33 33 29 26 29 29 27 28 28 33 31 22 29 26 29 31 33 36
8 7 11 11 11 18 21 21 18 17 23 23 24 23 22 22 24 25 27 28 29 30 31 33 36 38 40 33 21 26 28 29 28 26 34 31 26 29 35 34 34 35 39
9 11 10 8 7 8 12 19 20 19 17 19 19 20 22 23 25 26 29 31 34 35 39 39 38 39 33 30 32 28 30 31 30 28 27 32 32 33 37 40 37 38 40
14 12 13 12 10 10 11 12 13 15 15 16 18 20 20 22 22 24 26 26 30 36 44 45 43 32 26 29 29 31 32 34 31 34 27 38 40 35 36 45 41 40 41
14 16 15 14 12 11 11 7 9 9 12 14 16 19 22 21 22 22 24 25 29 28 18 12 17 25 29 32 31 32 35 36 36 39 36 32 35 45 40 44 43 42 42
23 18 16 16 17 17 15 15 14 13 13 15 15 16 19 22 24 25 25 26 25 27 21 20 24 24 28 32 32 36 36 33 39 38 37 38 37 43 45 42 42 44 44
22 21 18 15 15 18 17 18 19 19 19 18 19 20 22 24 24 23 24 26 26 27 27 28 28 29 31 35 39 37 39 35 47 37 44 46 43 44 43 43 44 45 44
16 19 17 14 14 18 17 18 20 22 23 23 21 23 25 25 26 29 29 29 32 32 34 34 36 37 39 33 40 46 43 37 38 37 43 43 43 43 43 45 47 44 43
19 21 15 14 16 17 19 22 23 23 25 25 26 25 26 28 29 29 31 34 38 39 40 39 37 37 34 42 40 45 41 37 37 39 42 40 41 43 45 46 45 43 42
15 18 16 19 18 19 22 25 26 23 25 27 28 27 27 28 30 31 33 33 35 35 36 37 31 35 42 36 48 39 40 40 43 42 42 41 43 45 46 44 43 44 44
17 18 18 17 18 20 22 22 21 21 26 28 28 28 30 30 28 27 28 30 32 33 32 28 31 32 38 34 44 41 42 44 43 42 44 48 47 43 43 44 47 48 48
19 16 14 15 15 17 19 18 18 20 23 26 26 28 27 26 27 28 29 30 32 32 30 26 29 35 37 38 41 49 42 45 52 50 52 52 47 45 46 49 54 53 47
14 11 9 12 15 15 17 19 20 22 24 25 26 26 27 29 29 30 31 30 29 29 27 29 34 36 40 44 41 45 49 53 57 50 48 47 49 52 52 53 51 49 50
11 9 11 15 18 19 20 21 23 24 26 27 28 29 30 32 32 32 32 32 31 30 29 32 37 40 42 45 49 53 59 56 51 49 50 52 54 52 55 54 52 50 47
12 13 15 16 16 17 18 19 21 23 26 28 31 33 34 34 34 34 33 32 32 31 35 39 42 45 47 52 55 56 52 51 52 52 51 52 55 57 55 51 48 48 48
13 12 14 15 15 16 21 22 23 26 27 29 30 31 32 33 34 33 31 32 34 39 42 46 49 50 48 46 48 49 51 52 52 52 52 52 52 49 50 50 49 49 48
16 18 18 17 18 22 22 23 25 26 27 28 27 27 29 31 29 26 26 33 37 39 41 42 44 46 47 49 49 49 49 49 49 49 50 48 50 51 50 49 48 48 48
Wind_Direction
336 347 6 258 194 189 184 187 215 222 205 233 191 206 233 219 229 227 223 207 228 210 198 199 209 211 215 229 232 238 250 265 266 263 266 265 269 273 280 289 294 294 296
333 359 26 47 147 205 213 215 181 213 215 230 230 250 244 252 215 225 220 228 209 191 199 208 207 215 224 237 235 243 255 260 267 271 268 269 271 277 284 290 293 297 304
326 353 40 61 82 101 122 142 158 202 191 193 199 196 195 192 198 192 192 187 202 199 199 208 206 221 232 238 238 244 253 262 266 269 270 273 278 279 280 286 292 299 304
313 333 29 63 87 104 121 124 130 132 142 163 171 181 188 194 194 187 183 190 188 193 201 203 216 221 224 237 242 247 259 267 270 275 278 279 279 277 279 283 290 293 301
250 279 296 70 91 114 127 137 143 136 137 135 140 149 159 161 173 174 175 179 191 198 203 210 223 228 236 244 248 256 262 280 275 274 276 274 276 273 273 276 281 284 285
228 252 245 251 201 170 129 135 153 152 148 146 146 149 158 166 172 179 180 186 199 207 211 217 222 228 238 244 255 260 264 268 276 278 279 271 264 265 267 269 274 283 281
229 241 256 275 260 248 212 187 175 162 166 161 161 163 172 182 188 196 199 203 212 220 224 231 234 237 244 248 252 257 262 263 269 273 266 290 289 265 261 261 274 282 281
233 228 224 234 254 249 244 236 222 204 196 185 180 193 199 204 204 209 213 215 221 225 229 235 237 237 245 247 250 260 266 274 267 272 289 292 300 285 277 264 276 280 281
222 221 231 240 244 254 233 232 239 230 222 214 209 211 217 224 226 227 231 233 232 232 232 236 241 241 245 247 256 262 271 274 280 269 287 292 288 275 281 278 275 282 279
217 220 228 239 247 257 263 253 226 235 238 237 234 232 234 239 241 243 246 246 245 245 245 243 247 250 248 243 252 262 270 274 283 267 277 280 273 287 276 284 283 277 277
228 239 234 232 252 261 262 267 264 247 237 243 242 242 245 247 248 249 249 249 250 250 254 251 249 250 249 241 253 257 260 272 269 269 270 284 278 281 278 288 284 280 278
244 283 242 268 261 278 273 261 266 266 252 239 241 246 245 248 251 255 259 258 258 258 257 258 252 257 259 264 265 268 261 271 274 264 276 281 273 278 277 281 282 279 279
240 265 258 263 266 272 298 271 264 271 271 263 249 243 245 253 261 266 268 273 275 280 279 257 268 254 255 263 264 264 260 274 271 278 267 266 275 275 284 275 281 279 279
236 254 256 264 254 268 287 301 294 288 288 276 269 261 261 264 265 269 263 268 275 302 289 251 243 243 249 260 261 264 264 279 275 278 273 269 284 271 273 278 278 280 281
247 249 254 259 265 262 267 267 271 283 286 282 285 284 271 267 269 269 275 282 278 280 277 265 259 256 258 261 263 263 272 271 286 265 285 262 283 267 283 278 277 278 278
247 248 249 262 255 255 269 275 283 287 290 282 283 287 279 275 274 276 278 277 281 281 275 272 269 266 267 268 264 262 272 287 250 250 269 258 262 278 280 275 275 275 278
237 238 245 261 253 250 263 275 275 279 272 265 266 271 274 273 273 281 279 279 278 279 278 276 274 272 271 254 247 277 275 269 260 282 262 270 280 279 272 274 275 278 280
234 235 256 255 250 259 271 273 269 267 258 256 261 267 269 276 280 280 281 278 276 277 276 278 277 277 250 269 263 267 267 251 276 262 277 281 273 271 275 277 277 279 281
221 235 243 252 256 273 284 279 269 258 259 258 271 271 275 278 276 275 278 279 278 278 276 273 274 268 261 269 264 258 282 265 278 270 280 275 272 271 273 274 274 274 277
222 232 238 252 274 285 283 277 268 257 252 260 263 267 271 271 274 277 279 283 284 281 278 275 275 264 260 262 274 283 261 264 268 277 277 274 269 271 272 273 273 277 275
225 235 256 273 282 287 289 286 273 264 260 261 263 263 265 267 271 275 281 284 281 280 275 271 260 259 261 272 268 278 262 278 282 280 279 271 269 270 271 270 271 275 277
231 250 268 281 286 288 290 289 279 272 269 267 266 265 266 271 274 277 281 282 282 275 270 255 256 266 269 267 264 271 277 277 271 265 267 266 267 271 277 277 275 276 277
231 249 278 285 288 295 297 289 282 277 275 273 270 269 271 272 274 276 279 279 278 278 271 267 267 263 259 261 271 277 271 262 261 265 270 275 281 284 281 277 275 277 281
244 264 276 284 289 291 294 295 294 287 281 278 276 274 274 274 276 280 283 287 285 280 275 263 260 261 265 267 267 265 266 278 286 287 286 283 280 279 278 279 281 282 285
261 270 287 283 287 297 294 292 293 292 290 287 285 284 285 287 291 296 298 295 288 276 271 267 264 263 264 271 281 286 286 286 286 287 287 286 283 282 284 284 285 288 290
286 280 280 275 284 287 289 291 292 292 293 293 291 289 287 290 293 295 295 279 273 269 272 276 279 281 282 282 283 283 284 284 284 285 285 287 288 286 286 288 289 291 292
Height
3070 3064 3058 3054 3056 3058 3060 3062 3067 3070 3073 3076 3080 3084 3087 3089 3095 3100 3104 3109 3112 3117 3122 3126 3130 3135 3138 3141 3142 3143 3144 3145 3144 3145 3145 3145 3145 3144 3143 3143 3143 3143 3142
3069 3067 3061 3057 3055 3059 3061 3062 3065 3068 3071 3072 3077 3081 3084 3088 3093 3096 3102 3106 3109 3114 3120 3124 3128 3132 3136 3138 3138 3139 3141 3142 3142 3141 3142 3140 3141 3139 3139 3139 3139 3138 3137
3069 3068 3065 3063 3062 3061 3062 3064 3065 3067 3069 3071 3075 3079 3082 3086 3089 3092 3098 3102 3106 3111 3117 3123 3124 3129 3132 3134 3135 3135 3136 3137 3137 3136 3137 3135 3135 3134 3133 3133 3133 3132 3131
3071 3069 3067 3066 3065 3067 3069 3071 3072 3071 3070 3071 3074 3077 3081 3083 3086 3091 3095 3099 3103 3109 3115 3118 3122 3124 3128 3130 3130 3130 3131 3130 3131 3132 3131 3129 3130 3129 3128 3128 3127 3125 3123
3069 3069 3069 3067 3069 3069 3070 3073 3076 3077 3077 3076 3078 3081 3084 3086 3090 3093 3095 3098 3102 3108 3112 3114 3117 3120 3123 3126 3126 3124 3125 3125 3127 3126 3126 3123 3122 3121 3120 3120 3122 3119 3117
3067 3070 3069 3068 3070 3071 3071 3073 3077 3080 3079 3079 3079 3082 3085 3089 3091 3094 3095 3096 3102 3106 3109 3110 3115 3118 3119 3120 3121 3119 3120 3120 3120 3121 3118 3116 3113 3112 3112 3113 3113 3110 3108
3063 3066 3068 3069 3070 3070 3071 3073 3075 3075 3077 3078 3080 3081 3085 3087 3089 3091 3093 3095 3100 3104 3106 3108 3111 3114 3115 3114 3114 3113 3113 3113 3113 3113 3109 3108 3105 3104 3102 3103 3103 3102 3100
3062 3064 3066 3068 3070 3071 3072 3072 3073 3075 3076 3077 3078 3081 3083 3086 3088 3090 3092 3095 3098 3101 3103 3105 3106 3108 3108 3107 3106 3105 3105 3106 3105 3102 3100 3099 3096 3095 3096 3096 3095 3093 3092
3059 3063 3065 3067 3069 3071 3072 3073 3074 3076 3077 3078 3080 3081 3083 3084 3086 3089 3091 3093 3094 3096 3097 3099 3099 3098 3098 3099 3098 3098 3099 3098 3097 3096 3093 3091 3089 3089 3088 3087 3085 3083 3081
3056 3059 3062 3063 3065 3067 3068 3068 3070 3071 3073 3074 3075 3077 3079 3081 3083 3084 3085 3087 3089 3090 3091 3090 3090 3089 3088 3088 3089 3090 3091 3090 3089 3088 3084 3085 3083 3082 3080 3079 3076 3074 3073
3053 3056 3057 3059 3060 3061 3061 3061 3063 3065 3066 3069 3070 3072 3074 3076 3078 3079 3081 3082 3083 3082 3083 3082 3081 3079 3077 3070 3078 3080 3081 3081 3080 3079 3079 3078 3076 3074 3072 3069 3067 3065 3063
3051 3052 3053 3054 3055 3056 3056 3055 3057 3058 3061 3064 3064 3066 3068 3069 3070 3072 3073 3073 3074 3075 3074 3072 3071 3063 3066 3071 3069 3072 3073 3072 3071 3071 3069 3069 3067 3064 3063 3060 3058 3056 3055
3048 3050 3050 3050 3051 3052 3052 3052 3054 3055 3056 3057 3058 3060 3061 3062 3063 3064 3064 3065 3066 3066 3056 3051 3058 3056 3063 3065 3065 3065 3065 3064 3062 3060 3061 3060 3057 3054 3053 3051 3049 3047 3046
3045 3046 3047 3047 3048 3049 3050 3050 3051 3052 3053 3053 3053 3054 3055 3056 3058 3059 3057 3058 3057 3057 3053 3051 3052 3054 3054 3057 3057 3057 3057 3055 3053 3051 3049 3050 3047 3045 3042 3041 3039 3037 3035
3040 3041 3043 3044 3045 3045 3047 3047 3048 3050 3050 3050 3050 3050 3050 3050 3051 3051 3051 3050 3049 3050 3051 3050 3050 3047 3047 3048 3049 3049 3048 3045 3043 3042 3041 3038 3036 3035 3033 3030 3028 3027 3024
3033 3036 3038 3040 3041 3042 3043 3043 3044 3044 3044 3044 3044 3044 3044 3043 3043 3044 3044 3044 3043 3042 3043 3042 3041 3039 3039 3040 3040 3040 3037 3034 3030 3031 3030 3027 3026 3024 3022 3020 3018 3016 3013
3029 3031 3033 3035 3036 3037 3038 3039 3040 3039 3039 3039 3039 3039 3039 3038 3038 3037 3036 3036 3036 3035 3035 3034 3033 3032 3032 3031 3030 3027 3025 3024 3022 3023 3021 3019 3016 3013 3010 3008 3006 3003 3001
3024 3027 3029 3030 3031 3032 3032 3033 3033 3033 3034 3034 3033 3033 3033 3032 3031 3029 3028 3028 3027 3026 3025 3024 3023 3023 3022 3022 3021 3018 3014 3016 3015 3013 3009 3006 3004 3001 2998 2996 2993 2991 2990
3020 3022 3023 3024 3025 3026 3026 3025 3024 3025 3026 3025 3024 3024 3024 3023 3023 3022 3020 3018 3017 3015 3014 3014 3013 3014 3011 3011 3011 3008 3008 3006 3004 3001 2998 2995 2992 2989 2986 2984 2982 2980 2978
3014 3016 3017 3019 3019 3018 3017 3016 3016 3017 3018 3018 3017 3017 3016 3015 3014 3013 3012 3011 3009 3007 3005 3005 3005 3004 3005 3003 3003 3001 2999 2996 2992 2990 2986 2983 2979 2975 2973 2972 2970 2967 2965
3009 3011 3012 3013 3013 3012 3011 3009 3009 3009 3009 3010 3010 3009 3008 3008 3007 3006 3005 3004 3002 3000 2997 2997 2998 2998 2996 2995 2993 2991 2988 2984 2979 2976 2973 2969 2965 2963 2960 2957 2954 2952 2949
3003 3005 3006 3007 3007 3007 3006 3005 3004 3004 3003 3002 3002 3001 3001 3001 3000 2999 2997 2996 2993 2992 2990 2990 2990 2989 2987 2985 2983 2979 2974 2970 2967 2962 2958 2955 2952 2949 2946 2944 2940 2936 2934
2998 2999 2999 3001 3001 3001 3001 3000 2999 2998 2998 2997 2996 2996 2995 2993 2992 2990 2988 2986 2985 2983 2982 2981 2980 2978 2976 2973 2968 2964 2961 2956 2952 2948 2945 2943 2940 2938 2934 2930 2926 2923 2920
2993 2994 2995 2995 2996 2996 2995 2994 2993 2992 2992 2990 2989 2988 2986 2985 2983 2982 2980 2978 2977 2977 2975 2972 2969 2966 2963 2959 2955 2951 2949 2948 2945 2940 2935 2931 2928 2924 2920 2916 2912 2909 2906
2988 2989 2990 2991 2991 2990 2990 2989 2987 2986 2985 2983 2982 2981 2980 2978 2976 2975 2973 2972 2970 2968 2966 2963 2959 2955 2952 2950 2948 2945 2940 2935 2930 2927 2922 2918 2914 2909 2906 2902 2899 2896 2893
2982 2983 2984 2985 2985 2985 2984 2982 2981 2979 2977 2976 2974 2973 2971 2969 2967 2966 2965 2964 2961 2959 2956 2954 2951 2948 2945 2940 2935 2930 2926 2921 2917 2913 2910 2905 2901 2897 2893 2890 2886 2882 2879